Location: Andria
(41.2170°N, 16.2830°E)
Time: 10:20:03
(UTC+02:00)

ISS - Visible Passes

Search period start: 08 May 2021 00:00
Search period end: 18 May 2021 00:00
Orbit: 418 x 421 km, 51.6° (Epoch: 08 May)

Date Brightness Start Highest point End Pass type
(mag) Time Alt. Az. Time Alt. Az. Time Alt. Az.
08 May -1.2 02:49:24 17° NNW 02:49:48 17° NNW 02:52:09 10° NNE visible
08 May -0.8 04:25:35 10° NNW 04:27:37 15° N 04:29:39 10° NE visible
09 May -0.8 02:03:26 17° NNE 02:03:26 17° NNE 02:04:50 10° NNE visible
09 May -0.8 03:38:02 10° NNW 03:39:56 14° N 03:41:49 10° NE visible
10 May -0.3 01:17:27 10° NE 01:17:27 10° NE 01:17:31 10° NE visible
10 May -0.7 02:50:23 10° NW 02:52:14 14° N 02:54:09 10° NNE visible
10 May -1.0 04:27:27 10° NNW 04:30:01 20° NNE 04:32:36 10° ENE visible
11 May -0.8 02:04:21 15° NNW 02:04:33 15° N 02:06:39 10° NNE visible
11 May -0.8 03:40:06 10° NNW 03:42:22 17° NNE 03:44:39 10° NE visible
12 May -0.5 01:18:17 14° NNE 01:18:17 14° NNE 01:19:14 10° NNE visible
12 May -0.6 02:52:41 10° NNW 02:54:43 15° N 02:56:44 10° NE visible
12 May -1.9 04:29:08 10° NW 04:32:16 34° NNE 04:35:24 10° E visible
13 May -0.5 02:05:07 10° NNW 02:07:01 14° N 02:08:54 10° NE visible
13 May -1.4 03:41:49 10° NW 03:44:42 25° NNE 03:47:35 10° E visible
14 May -0.6 01:18:38 14° NNW 01:19:19 14° N 01:21:13 10° NNE visible
14 May -1.0 02:54:31 10° NNW 02:57:06 20° NNE 02:59:41 10° ENE visible
14 May -3.7 04:30:55 10° NW 04:34:18 85° NNE 04:37:41 10° SE visible
14 May -2.9 21:14:28 10° SSW 21:17:22 28° SE 21:20:18 10° ENE visible
14 May -2.3 22:50:55 10° W 22:54:05 37° NNW 22:55:41 23° NNE visible
15 May -0.6 00:29:32 10° NW 00:31:37 15° N 00:33:42 10° NNE visible
15 May -0.7 02:07:10 10° NNW 02:09:27 17° NNE 02:11:43 10° NE visible
15 May -2.9 03:43:32 10° NW 03:46:51 52° NNE 03:50:09 10° ESE visible
15 May -3.2 22:03:16 10° WSW 22:06:35 58° NNW 22:09:55 10° NE visible
15 May -0.8 23:41:36 10° WNW 23:43:57 17° NNW 23:46:17 10° NNE visible
16 May -0.6 01:19:44 10° NNW 01:21:46 15° N 01:23:47 10° NE visible
16 May -2.1 02:56:12 10° NW 02:59:20 34° NNE 03:02:27 10° E visible
16 May -3.0 04:33:04 10° WNW 04:36:07 32° SW 04:39:08 10° SSE visible
16 May -3.9 21:15:47 10° SW 21:19:08 85° SSE 21:22:31 10° NE visible
16 May -1.1 22:53:39 10° WNW 22:56:18 21° NNW 22:58:57 10° NNE visible
17 May -0.5 00:32:11 10° NNW 00:34:04 14° N 00:35:57 10° NE visible
17 May -1.5 02:08:53 10° NW 02:11:46 25° NNE 02:14:38 10° E visible
17 May -3.8 03:45:26 10° WNW 03:48:45 55° SW 03:52:04 10° SE visible
17 May -1.5 22:05:47 10° W 22:08:42 27° NNW 22:11:38 10° NE visible
17 May -0.5 23:44:28 10° NW 23:46:22 14° N 23:48:16 10° NNE visible
